GW0326 Weather Reports


Display with metric or nautical units.
time (UTC)temp
F
wind
direction
speed
MPH
gust
MPH
rain 1hr
in
rain 24hr
in
rain mn
in
humidity
%
barometer
mb
20260503021550 46 0 0.0 0.0 0.00 0.00 0.00 26 1021.5
20260503021047 47 0 0.0 0.0 0.00 0.00 0.00 27 1021.4
20260503020545 47 0 0.0 0.0 0.00 0.00 0.00 27 1021.4
20260503020053 48 0 0.0 0.0 0.00 0.00 0.00 24 1021.3
20260503015546 48 0 0.0 0.0 0.00 0.00 0.00 24 1021.3
20260503015045 49 0 0.0 0.0 0.00 0.00 0.00 24 1021.2
20260503014608 50 0 0.0 0.0 0.00 0.00 0.00 23 1021.2
20260503014044 51 0 0.0 0.0 0.00 0.00 0.00 23 1021.2
20260503013548 52 0 0.0 0.0 0.00 0.00 0.00 22 1021.2
20260503013054 53 0 0.0 1.0 0.00 0.00 0.00 21 1021.1
20260503012548 53 0 0.0 1.0 0.00 0.00 0.00 19 1021.1
20260503012044 54 0 0.0 2.0 0.00 0.00 0.00 18 1021.1
20260503011557 55 0 0.0 2.0 0.00 0.00 0.00 17 1021.0
20260503011045 55 126 0.0 4.0 0.00 0.00 0.00 17 1021.0
20260503010545 56 0 0.0 4.0 0.00 0.00 0.00 16 1021.0
20260503010058 56 0 0.0 6.0 0.00 0.00 0.00 16 1020.9
20260503005548 56 0 2.0 6.0 0.00 0.00 0.00 16 1020.9
20260503005047 57 70 0.0 4.0 0.00 0.00 0.00 16 1020.9
20260503004550 57 0 1.0 4.0 0.00 0.00 0.00 17 1020.9
20260503004050 57 0 1.0 4.0 0.00 0.00 0.00 16 1020.9
20260503003545 58 84 0.0 5.0 0.00 0.00 0.00 16 1020.9
20260503003106 58 0 1.0 7.0 0.00 0.00 0.00 16 1020.9
20260503002547 58 117 1.0 7.0 0.00 0.00 0.00 16 1020.9
20260503002044 58 101 3.0 10.0 0.00 0.00 0.00 15 1020.9
20260503001604 58 101 2.0 10.0 0.00 0.00 0.00 16 1020.9
20260503001047 58 42 0.0 7.0 0.00 0.00 0.00 16 1020.9
20260503000546 59 98 1.0 6.0 0.00 0.00 0.00 16 1021.0
20260503000051 59 0 1.0 7.0 0.00 0.00 0.00 16 1021.0
20260502235545 59 72 1.0 7.0 0.00 0.00 0.00 16 1021.0
20260502235047 59 157 1.0 7.0 0.00 0.00 0.00 16 1021.0
20260502234552 59 128 1.0 8.0 0.00 0.00 0.00 16 1021.1
20260502234045 59 0 0.0 8.0 0.00 0.00 0.00 17 1021.1
20260502233545 59 72 3.0 8.0 0.00 0.00 0.00 16 1021.0
20260502233052 59 61 1.0 8.0 0.00 0.00 0.00 18 1021.1
20260502232550 59 0 2.0 9.0 0.00 0.00 0.00 17 1021.1
20260502232047 59 113 2.0 9.0 0.00 0.00 0.00 17 1021.1
20260502231600 59 40 3.0 12.0 0.00 0.00 0.00 17 1021.1
20260502231047 59 0 3.0 12.0 0.00 0.00 0.00 18 1021.1
20260502230547 60 55 4.0 12.0 0.00 0.00 0.00 17 1021.0
20260502230055 60 120 2.0 10.0 0.00 0.00 0.00 18 1021.2
20260502225546 60 63 3.0 10.0 0.00 0.00 0.00 18 1021.1
20260502225047 60 95 3.0 9.0 0.00 0.00 0.00 18 1021.2
20260502224558 60 48 3.0 9.0 0.00 0.00 0.00 18 1021.2
20260502224044 60 85 3.0 14.0 0.00 0.00 0.00 19 1021.2
20260502223544 60 49 4.0 14.0 0.00 0.00 0.00 18 1021.3
20260502223054 60 96 4.0 11.0 0.00 0.00 0.00 18 1021.3
20260502222548 60 144 3.0 13.0 0.00 0.00 0.00 18 1021.4
20260502222043 61 115 2.0 13.0 0.00 0.00 0.00 19 1021.4
20260502221549 61 72 3.0 8.0 0.00 0.00 0.00 19 1021.5
20260502221048 61 0 2.0 7.0 0.00 0.00 0.00 19 1021.4
20260502220547 61 100 1.0 6.0 0.00 0.00 0.00 19 1021.4
20260502220053 61 123 3.0 10.0 0.00 0.00 0.00 19 1021.6
20260502215547 61 158 3.0 10.0 0.00 0.00 0.00 19 1021.6
20260502215045 61 57 3.0 8.0 0.00 0.00 0.00 19 1021.6
20260502214550 61 66 2.0 9.0 0.00 0.00 0.00 20 1021.7
20260502214044 61 130 2.0 9.0 0.00 0.00 0.00 20 1021.9
20260502213544 61 72 0.0 9.0 0.00 0.00 0.00 20 1022.0
20260502213050 60 105 3.0 11.0 0.00 0.00 0.00 21 1022.0
20260502212544 60 86 4.0 11.0 0.00 0.00 0.00 21 1022.1
20260502212044 61 92 5.0 10.0 0.00 0.00 0.00 19 1022.1
20260502211552 61 98 2.0 10.0 0.00 0.00 0.00 22 1022.2
20260502211050 61 105 4.0 12.0 0.00 0.00 0.00 20 1022.2
20260502210549 61 84 3.0 15.0 0.00 0.00 0.00 21 1022.3
20260502210103 61 74 7.0 15.0 0.00 0.00 0.00 20 1022.2
20260502205547 61 106 4.0 12.0 0.00 0.00 0.00 21 1022.3
20260502205047 60 53 3.0 12.0 0.00 0.00 0.00 21 1022.4
20260502204555 61 78 4.0 12.0 0.00 0.00 0.00 22 1022.4
20260502204044 61 34 3.0 10.0 0.00 0.00 0.00 20 1022.4
20260502203547 61 80 3.0 10.0 0.00 0.00 0.00 22 1022.4
20260502203052 61 63 6.0 10.0 0.00 0.00 0.00 21 1022.5
20260502202544 61 40 2.0 14.0 0.00 0.00 0.00 22 1022.5
20260502202045 61 78 2.0 14.0 0.00 0.00 0.00 22 1022.4
20260502201553 61 76 2.0 11.0 0.00 0.00 0.00 22 1022.5
20260502201047 61 132 4.0 11.0 0.00 0.00 0.00 22 1022.6
20260502200544 61 99 2.0 10.0 0.00 0.00 0.00 23 1022.7
20260502200054 60 117 2.0 10.0 0.00 0.00 0.00 24 1022.6
20260502195548 60 167 2.0 10.0 0.00 0.00 0.00 23 1022.6
20260502195049 60 75 3.0 10.0 0.00 0.00 0.00 22 1022.6
20260502194604 60 55 2.0 10.0 0.00 0.00 0.00 23 1022.8
20260502194050 60 92 4.0 10.0 0.00 0.00 0.00 23 1022.9
20260502193547 60 132 1.0 9.0 0.00 0.00 0.00 23 1022.9
20260502193057 60 145 4.0 9.0 0.00 0.00 0.00 24 1022.9
20260502192547 59 146 1.0 6.0 0.00 0.00 0.00 23 1023.0
20260502192046 59 74 1.0 10.0 0.00 0.00 0.00 25 1023.1
20260502191602 59 171 3.0 10.0 0.00 0.00 0.00 24 1023.2
20260502191048 59 124 3.0 10.0 0.00 0.00 0.00 24 1023.2
20260502190550 58 129 3.0 11.0 0.00 0.00 0.00 25 1023.1
20260502190110 59 55 4.0 11.0 0.00 0.00 0.00 23 1023.1
20260502185546 58 113 2.0 9.0 0.00 0.00 0.00 25 1023.2
20260502185047 58 87 3.0 9.0 0.00 0.00 0.00 24 1023.3
20260502184601 58 107 2.0 9.0 0.00 0.00 0.00 24 1023.3
20260502184044 58 63 2.0 9.0 0.00 0.00 0.00 24 1023.3
20260502183547 58 164 1.0 9.0 0.00 0.00 0.00 25 1023.4
20260502183111 57 0 0.0 10.0 0.00 0.00 0.00 25 1023.4
20260502182545 57 93 4.0 10.0 0.00 0.00 0.00 24 1023.6
20260502182044 58 100 3.0 7.0 0.00 0.00 0.00 24 1023.6
20260502181554 58 63 2.0 7.0 0.00 0.00 0.00 24 1023.7
20260502181044 57 170 2.0 9.0 0.00 0.00 0.00 25 1023.7
20260502180550 56 121 2.0 9.0 0.00 0.00 0.00 25 1023.8
20260502164047 54 86 1.0 5.0 0.00 0.00 0.00 25 1024.1
20260502163549 53 0 0.0 5.0 0.00 0.00 0.00 25 1024.1
20260502163054 53 115 1.0 5.0 0.00 0.00 0.00 27 1024.2
20260502162547 53 0 0.0 4.0 0.00 0.00 0.00 26 1024.2
20260502162048 52 202 0.0 3.0 0.00 0.00 0.00 25 1024.2
20260502161618 52 0 1.0 5.0 0.00 0.00 0.00 25 1024.2
20260502161050 52 161 1.0 6.0 0.00 0.00 0.00 27 1024.2
20260502160547 52 0 0.0 6.0 0.00 0.00 0.00 25 1024.3
20260502152050 51 240 0.0 4.0 0.00 0.01 0.00 25 1024.5
20260502151546 50 240 0.0 4.0 0.00 0.01 0.00 27 1024.5
20260502151048 50 0 1.0 4.0 0.00 0.01 0.00 27 1024.6
20260502150547 50 0 0.0 2.0 0.00 0.01 0.00 27 1024.6
20260502130547 39 0 1.0 7.0 0.00 0.03 0.00 50 1024.4
20260502123547 36 232 0.0 7.0 0.00 0.03 0.00 54 1024.3
20260502123052 36 221 1.0 7.0 0.00 0.03 0.00 54 1024.3
20260502122546 35 0 1.0 5.0 0.00 0.03 0.00 55 1024.2
20260502122047 35 267 0.0 5.0 0.00 0.03 0.00 56 1024.2
20260502121557 35 235 0.0 3.0 0.00 0.03 0.00 56 1024.2
20260502121045 34 236 0.0 5.0 0.00 0.03 0.00 56 1024.1
20260502120547 34 0 0.0 5.0 0.00 0.03 0.00 56 1024.0
20260502115544 34 225 0.0 3.0 0.00 0.03 0.00 56 1024.1
20260502115047 34 0 0.0 3.0 0.00 0.03 0.00 57 1024.1
20260502114557 35 0 0.0 7.0 0.00 0.03 0.00 56 1024.1
20260502114048 35 0 0.0 8.0 0.00 0.03 0.00 56 1024.0
20260502113548 35 0 0.0 8.0 0.00 0.03 0.00 56 1024.0
20260502113054 35 242 0.0 4.0 0.00 0.03 0.00 57 1024.0
20260502112547 35 0 0.0 4.0 0.00 0.03 0.00 56 1024.1
20260502112047 35 360 0.0 4.0 0.00 0.03 0.00 57 1024.1
20260502111602 35 0 1.0 4.0 0.00 0.03 0.00 57 1024.1
20260502111047 35 232 1.0 7.0 0.00 0.03 0.00 57 1024.2
20260502110547 34 0 0.0 7.0 0.00 0.03 0.00 57 1024.1
20260502110054 34 0 0.0 7.0 0.00 0.03 0.00 58 1024.1
20260502105547 34 0 0.0 2.0 0.00 0.03 0.00 57 1024.1
20260502105046 34 0 0.0 3.0 0.00 0.03 0.00 57 1023.9
20260502104553 34 250 0.0 3.0 0.00 0.03 0.00 57 1023.9
20260502104047 34 250 0.0 4.0 0.00 0.03 0.00 58 1024.1
20260502103547 34 250 0.0 4.0 0.00 0.03 0.00 58 1024.0
20260502103047 34 0 0.0 1.0 0.00 0.03 0.00 58 1024.0
20260502102544 34 0 0.0 4.0 0.00 0.03 0.00 59 1024.1
20260502102048 34 0 0.0 4.0 0.00 0.03 0.00 58 1024.0
20260502101554 35 0 0.0 4.0 0.00 0.03 0.00 58 1024.0
20260502101047 35 0 0.0 2.0 0.00 0.03 0.00 58 1024.0
20260502100548 35 0 0.0 2.0 0.00 0.03 0.00 58 1024.0
20260502091047 35 0 0.0 4.0 0.00 0.03 0.00 60 1023.9
20260502090545 35 0 0.0 6.0 0.00 0.03 0.00 60 1023.9
20260502071050 35 0 0.0 3.0 0.00 0.03 0.00 60 1024.4
20260502070548 35 0 0.0 5.0 0.00 0.03 0.00 59 1024.5
20260502065548 36 0 0.0 5.0 0.00 0.03 0.00 59 1024.6
20260502065048 35 0 0.0 2.0 0.00 0.03 0.00 59 1024.6
20260502064548 35 0 0.0 0.0 0.00 0.03 0.00 59 1024.6
20260502064044 35 0 0.0 1.0 0.00 0.03 0.00 59 1024.6
20260502063544 35 0 0.0 2.0 0.00 0.03 0.00 60 1024.6
20260502063055 36 0 0.0 2.0 0.00 0.03 0.00 59 1024.6
20260502062547 36 0 0.0 0.0 0.00 0.03 0.00 58 1024.6
20260502062047 37 0 0.0 0.0 0.00 0.03 0.00 58 1024.6
20260502061554 37 0 0.0 0.0 0.00 0.03 0.00 57 1024.6
20260502061047 37 0 0.0 2.0 0.00 0.03 0.00 58 1024.6
20260502060550 37 0 0.0 2.0 0.00 0.03 0.00 59 1024.6
20260502060055 37 0 0.0 2.0 0.00 0.03 0.00 60 1024.7
20260502055548 37 0 0.0 1.0 0.00 0.03 0.03 60 1024.7
20260502055046 37 0 0.0 0.0 0.00 0.03 0.03 61 1024.7
20260502054548 36 0 0.0 1.0 0.00 0.03 0.03 62 1024.7
20260502054047 36 0 0.0 1.0 0.00 0.03 0.03 62 1024.7
20260502053547 36 0 0.0 0.0 0.00 0.03 0.03 61 1024.6
20260502053102 36 0 0.0 0.0 0.00 0.03 0.03 62 1024.5
20260502052547 36 0 0.0 0.0 0.00 0.03 0.03 62 1024.6
20260502052045 36 0 0.0 0.0 0.00 0.03 0.03 62 1024.6
20260502051603 36 0 0.0 0.0 0.00 0.03 0.03 62 1024.6
20260502051044 36 0 0.0 0.0 0.00 0.03 0.03 61 1024.6
20260502050544 36 0 0.0 0.0 0.00 0.03 0.03 60 1024.6
20260502050056 36 0 0.0 0.0 0.00 0.03 0.03 60 1024.5
20260502045543 36 0 0.0 0.0 0.00 0.03 0.03 59 1024.5
20260502045050 37 0 0.0 0.0 0.00 0.03 0.03 60 1024.6
20260502044552 37 0 0.0 0.0 0.00 0.03 0.03 60 1024.5
20260502044050 37 0 0.0 2.0 0.00 0.03 0.03 58 1024.7
20260502043545 37 0 0.0 2.0 0.00 0.03 0.03 61 1024.6
20260502043100 37 0 0.0 0.0 0.00 0.03 0.03 60 1024.5
20260502042551 36 0 0.0 0.0 0.00 0.03 0.03 58 1024.5
20260502042048 36 0 0.0 0.0 0.00 0.03 0.03 55 1024.5
20260502041621 36 0 0.0 0.0 0.00 0.03 0.03 54 1024.4
20260502041047 36 0 0.0 0.0 0.00 0.03 0.03 53 1024.4
20260502040547 36 0 0.0 0.0 0.00 0.03 0.03 53 1024.2
20260502040057 36 0 0.0 0.0 0.00 0.03 0.03 53 1024.2
20260502035548 36 0 0.0 0.0 0.00 0.03 0.03 51 1024.3
20260502035048 36 0 0.0 0.0 0.00 0.03 0.03 52 1024.2
20260502034552 36 0 0.0 0.0 0.00 0.03 0.03 50 1024.2
20260502034046 36 0 0.0 0.0 0.00 0.03 0.03 52 1024.1
20260502033547 36 0 0.0 0.0 0.00 0.03 0.03 52 1024.0
20260502033105 36 0 0.0 0.0 0.00 0.03 0.03 54 1023.9
20260502032548 36 0 0.0 0.0 0.00 0.03 0.03 53 1023.8
20260502032047 36 0 0.0 0.0 0.00 0.03 0.03 53 1023.8
20260502031553 36 0 0.0 0.0 0.00 0.03 0.03 53 1023.6
20260502031050 36 0 0.0 1.0 0.00 0.03 0.03 53 1023.5
20260502030547 36 0 0.0 1.0 0.00 0.03 0.03 52 1023.5
20260502030055 36 0 0.0 1.0 0.00 0.03 0.03 52 1023.4
20260502025547 36 27 0.0 0.0 0.00 0.03 0.03 51 1023.3
20260502025047 37 0 0.0 0.0 0.00 0.03 0.03 51 1023.2
20260502024551 37 0 0.0 0.0 0.00 0.03 0.03 51 1023.2
20260502024048 37 0 0.0 0.0 0.00 0.03 0.03 51 1023.2
20260502023547 37 0 0.0 0.0 0.00 0.03 0.03 50 1023.0
20260502023057 38 0 0.0 0.0 0.00 0.03 0.03 51 1022.9
20260502022547 38 0 0.0 0.0 0.00 0.03 0.03 51 1022.9
20260502022052 39 0 0.0 0.0 0.00 0.03 0.03 48 1022.8